Precipitable_Water
0.62 0.56 0.51 0.52 0.54 0.55 0.51 0.48 0.47 0.48 0.53 0.55 0.52 0.55 0.66 0.85 1.01 1.03 1.12 1.21 1.13 1.11 1.25 1.45 1.53 1.67 1.67 1.73 1.79 1.78 1.73 1.83 1.98 1.96 1.87 1.85 1.80 1.90 1.98 2.04 2.01 1.95 1.90 1.89
0.51 0.48 0.58 0.59 0.57 0.54 0.51 0.48 0.45 0.47 0.56 0.60 0.56 0.55 0.73 0.83 0.94 1.04 1.09 1.13 1.14 1.09 1.12 1.19 1.29 1.35 1.42 1.58 1.70 1.73 1.76 1.84 1.89 1.94 2.03 2.03 2.04 2.12 2.14 2.21 2.20 2.12 2.04 2.00
0.46 0.51 0.56 0.56 0.52 0.48 0.49 0.47 0.45 0.41 0.52 0.62 0.55 0.51 0.59 0.76 0.86 1.00 1.11 1.14 1.16 0.99 1.01 1.09 1.17 1.19 1.38 1.55 1.61 1.69 1.76 1.88 1.98 1.99 2.05 2.06 2.12 2.17 1.85 2.06 2.10 2.15 2.14 2.16
0.48 0.54 0.49 0.51 0.49 0.50 0.44 0.50 0.42 0.38 0.41 0.34 0.54 0.34 0.51 0.62 0.69 0.83 0.94 0.99 1.04 0.96 1.00 1.06 1.13 1.10 1.27 1.49 1.62 1.62 1.67 1.77 1.84 2.01 2.08 2.07 1.82 1.68 1.79 1.88 2.03 1.99 2.06 2.12
0.46 0.48 0.49 0.46 0.47 0.50 0.44 0.46 0.41 0.39 0.38 0.35 0.40 0.38 0.38 0.57 0.54 0.67 0.82 0.93 0.93 0.92 0.93 0.94 0.89 1.01 1.23 1.38 1.47 1.57 1.58 1.68 1.83 1.99 1.96 1.97 1.82 1.78 1.73 1.72 1.64 1.58 1.62 1.72
0.50 0.49 0.48 0.48 0.49 0.47 0.46 0.40 0.36 0.35 0.32 0.24 0.32 0.37 0.33 0.45 0.56 0.63 0.78 0.88 0.85 0.88 0.92 0.96 0.93 1.04 1.19 1.38 1.40 1.48 1.51 1.56 1.67 1.78 1.80 1.76 1.68 1.61 1.42 1.41 1.45 1.54 1.73 1.81
0.42 0.44 0.50 0.52 0.42 0.41 0.39 0.34 0.26 0.22 0.22 0.22 0.42 0.38 0.39 0.58 0.67 0.70 0.77 0.85 0.87 0.98 0.92 0.91 0.86 0.95 1.08 1.27 1.33 1.38 1.39 1.45 1.63 1.67 1.65 1.61 1.46 1.32 1.33 1.39 1.45 1.54 1.77 1.91
0.37 0.32 0.45 0.45 0.38 0.32 0.30 0.29 0.23 0.18 0.20 0.24 0.41 0.33 0.43 0.68 0.78 0.85 0.91 0.97 1.01 1.01 0.95 0.94 0.98 1.00 1.03 1.13 1.20 1.25 1.32 1.44 1.51 1.52 1.50 1.45 1.30 1.33 1.34 1.35 1.41 1.57 1.72 1.90
0.32 0.35 0.44 0.39 0.36 0.33 0.29 0.24 0.28 0.25 0.34 0.28 0.34 0.43 0.59 0.71 0.76 0.84 0.89 0.96 1.01 0.98 0.96 0.98 1.00 0.96 1.07 1.17 1.24 1.32 1.35 1.40 1.43 1.37 1.32 1.30 1.36 1.45 1.39 1.37 1.41 1.52 1.71 1.86
0.35 0.34 0.38 0.35 0.36 0.34 0.29 0.32 0.23 0.26 0.20 0.22 0.31 0.37 0.39 0.54 0.64 0.81 0.85 0.88 1.01 1.08 1.05 0.98 0.98 1.05 1.15 1.24 1.29 1.35 1.34 1.29 1.33 1.36 1.36 1.28 1.37 1.42 1.42 1.35 1.30 1.41 1.61 1.81
0.41 0.36 0.33 0.33 0.31 0.32 0.28 0.25 0.30 0.35 0.34 0.26 0.24 0.28 0.52 0.59 0.69 0.78 0.84 0.91 1.03 1.06 1.02 1.11 1.24 1.25 1.28 1.32 1.32 1.34 1.35 1.33 1.37 1.41 1.44 1.37 1.33 1.32 1.29 1.29 1.32 1.35 1.55 1.69
0.41 0.35 0.28 0.27 0.34 0.50 0.43 0.31 0.32 0.26 0.30 0.41 0.38 0.33 0.61 0.68 0.75 0.83 0.84 0.90 1.01 1.08 1.21 1.37 1.46 1.60 1.56 1.31 1.34 1.33 1.39 1.39 1.41 1.45 1.37 1.25 1.17 1.08 1.02 1.01 1.05 1.14 1.17 1.34
0.39 0.30 0.24 0.25 0.30 0.45 0.44 0.45 0.44 0.45 0.47 0.38 0.35 0.39 0.63 0.70 0.78 0.83 0.83 0.90 1.03 1.20 1.25 1.38 1.47 1.55 1.65 1.69 1.50 1.35 1.42 1.41 1.34 1.20 1.07 0.99 0.97 0.94 0.87 0.86 0.90 0.92 0.90 0.96
0.37 0.29 0.25 0.22 0.24 0.33 0.38 0.44 0.49 0.45 0.40 0.43 0.44 0.47 0.54 0.61 0.69 0.76 0.81 0.90 1.08 1.15 1.22 1.25 1.32 1.45 1.63 1.78 1.81 1.52 1.41 1.30 1.10 0.98 0.90 0.88 0.95 0.99 0.99 0.94 0.92 0.88 0.89 0.85
0.30 0.24 0.25 0.30 0.32 0.37 0.37 0.38 0.42 0.43 0.48 0.44 0.48 0.50 0.54 0.60 0.66 0.76 0.85 0.93 0.98 1.09 1.19 1.26 1.30 1.33 1.36 1.49 1.75 1.70 1.39 1.23 1.05 1.00 1.02 1.02 1.06 1.09 1.11 1.12 1.10 1.06 1.00 0.97
0.29 0.24 0.31 0.30 0.38 0.40 0.39 0.44 0.46 0.49 0.50 0.48 0.53 0.52 0.66 0.69 0.76 0.78 0.84 0.93 0.98 1.05 1.13 1.22 1.29 1.26 1.18 1.43 1.66 1.63 1.29 1.19 1.17 1.12 1.15 1.21 1.13 1.13 1.16 1.20 1.28 1.14 1.08 1.07
0.30 0.31 0.31 0.28 0.43 0.43 0.34 0.41 0.44 0.47 0.49 0.48 0.39 0.50 0.62 0.65 0.72 0.79 0.87 0.99 1.02 1.09 1.13 1.25 1.29 1.14 1.14 1.33 1.41 1.39 1.26 1.31 1.30 1.25 1.30 1.33 1.23 1.22 1.26 1.31 1.25 1.09 1.04 0.99
0.38 0.35 0.39 0.35 0.43 0.30 0.42 0.58 0.55 0.47 0.49 0.52 0.49 0.53 0.64 0.74 0.88 0.92 1.09 1.08 1.13 1.19 1.26 1.17 1.27 1.17 1.15 1.31 1.41 1.46 1.36 1.38 1.33 1.35 1.41 1.49 1.35 1.38 1.39 1.29 1.15 1.06 1.00 0.93
0.52 0.44 0.39 0.36 0.38 0.42 0.48 0.53 0.50 0.48 0.48 0.60 0.56 0.59 0.71 0.88 1.01 0.99 1.21 1.28 1.25 1.31 1.40 1.37 1.29 1.25 1.30 1.47 1.50 1.58 1.46 1.45 1.47 1.55 1.44 1.66 1.48 1.28 1.23 1.14 1.07 1.03 0.98 0.93
0.63 0.56 0.43 0.43 0.35 0.30 0.43 0.57 0.68 0.65 0.43 0.67 0.73 0.71 0.72 0.83 0.68 0.90 1.22 1.36 1.39 1.46 1.41 1.30 1.33 1.38 1.33 1.46 1.53 1.49 1.39 1.40 1.39 1.53 1.55 1.44 1.34 1.20 1.13 1.10 1.05 1.07 1.04 0.97
0.49 0.51 0.46 0.46 0.41 0.44 0.56 0.67 0.73 0.44 0.45 0.73 0.84 0.87 0.85 0.83 0.97 1.26 1.40 1.48 1.54 1.45 1.30 1.30 1.28 1.32 1.37 1.40 1.42 1.36 1.30 1.28 1.34 1.37 1.35 1.25 1.19 1.13 1.07 1.05 1.07 1.08 1.05 1.03
0.44 0.44 0.44 0.49 0.43 0.40 0.74 0.74 0.57 0.67 0.82 0.90 0.92 0.94 0.93 1.14 1.18 1.27 1.64 1.47 1.52 1.51 1.47 1.37 1.30 1.27 1.35 1.36 1.29 1.17 1.10 1.16 1.20 1.20 1.15 1.07 1.05 1.05 1.06 1.05 1.05 1.03 0.98 0.91
0.40 0.47 0.44 0.50 0.51 0.70 0.82 0.83 0.86 0.93 0.98 1.06 1.02 1.07 1.20 1.23 1.29 1.37 1.50 1.30 1.20 1.39 1.26 1.23 1.20 1.18 1.18 1.14 1.08 1.02 1.04 1.05 1.02 0.99 0.96 0.97 0.99 0.98 0.97 0.89 0.80 0.76 0.80 0.78
0.63 0.74 0.54 0.52 0.58 0.66 0.74 0.83 0.94 1.04 1.06 1.13 1.12 1.21 1.27 1.16 1.10 1.05 1.24 1.04 1.09 1.14 1.15 1.14 1.05 1.00 1.01 1.08 1.06 1.02 1.01 0.99 0.96 0.91 0.90 0.86 0.77 0.71 0.69 0.66 0.66 0.65 0.64 0.65
0.61 0.68 0.61 0.56 0.60 0.68 0.78 0.88 1.03 1.13 1.14 1.11 1.21 1.22 1.17 1.08 1.04 1.06 1.03 1.03 1.11 1.08 1.08 1.09 1.08 1.06 1.03 1.04 1.01 1.00 0.94 0.87 0.79 0.72 0.63 0.60 0.61 0.61 0.62 0.64 0.64 0.65 0.72 0.76
0.72 0.64 0.57 0.54 0.68 0.70 0.77 0.93 1.03 1.03 1.07 1.16 1.14 1.08 1.06 1.01 0.94 1.00 0.99 1.03 1.06 1.05 1.09 1.09 1.08 1.04 1.02 1.01 0.96 0.90 0.79 0.67 0.59 0.56 0.58 0.59 0.60 0.64 0.67 0.65 0.64 0.74 0.75 0.78
Wind_Speed
13 12 14 11 9 7 6 5 6 6 4 1 3 2 4 3 2 2 3 3 3 6 5 3 2 2 1 2 4 5 5 10 10 11 11 12 13 14 15 15 15 15 16 16
12 15 14 11 9 9 7 5 7 5 4 2 3 2 3 3 3 3 3 4 4 5 4 3 2 2 2 1 3 6 5 6 9 10 11 11 12 13 15 16 16 17 18 18
15 14 15 12 10 8 7 6 7 8 4 3 3 4 5 4 4 4 3 4 4 4 4 3 4 3 3 2 2 5 5 5 6 8 10 12 13 16 14 15 14 17 19 21
16 16 14 13 12 9 8 7 7 5 3 4 4 7 8 7 7 5 4 4 5 4 3 3 3 3 3 3 1 2 4 5 5 7 9 12 16 14 6 10 14 17 19 21
15 14 15 13 13 10 11 6 6 4 3 2 5 4 8 6 8 7 5 5 4 3 3 3 3 2 1 2 3 2 3 4 6 6 7 9 11 10 10 12 15 18 21 24
17 14 15 15 12 11 11 7 4 3 5 5 6 4 8 7 8 6 5 6 5 2 2 3 3 2 1 1 2 3 2 3 4 4 7 9 9 9 11 12 15 19 22 22
14 15 15 13 10 9 7 5 7 6 5 7 3 3 9 7 7 7 7 6 5 3 1 3 3 3 2 2 1 1 2 3 4 4 6 7 8 9 11 15 17 19 20 18
15 13 16 12 11 10 9 9 8 9 8 7 5 6 8 8 5 6 9 8 7 5 3 2 2 2 4 3 2 1 1 3 5 5 6 7 8 10 13 15 16 17 19 18
15 14 13 12 10 8 8 9 9 6 7 6 8 9 11 8 10 9 9 10 9 5 3 1 2 1 2 2 2 2 2 3 5 6 7 8 10 12 13 15 16 16 17 17
15 13 13 10 9 9 11 9 6 7 6 8 9 10 9 11 9 7 7 10 9 7 4 3 3 3 3 2 1 2 3 3 5 6 9 10 12 14 15 16 16 16 16 16
17 14 12 9 7 8 8 9 6 6 5 6 7 10 11 10 9 8 8 9 9 9 7 5 5 4 3 3 4 4 3 4 5 7 10 12 13 15 16 16 16 15 15 16
19 14 13 11 8 7 8 9 8 7 9 7 6 10 6 9 6 8 10 10 9 7 5 6 5 6 8 6 6 5 5 5 6 8 11 13 14 14 14 15 15 15 15 15
22 14 10 6 6 7 5 6 6 5 5 7 5 9 8 4 2 4 7 6 7 5 5 5 6 9 12 11 8 7 7 7 7 9 11 12 12 13 14 14 15 15 16 16
20 15 14 12 9 8 9 8 8 7 6 8 9 10 10 4 4 5 3 4 7 7 7 8 11 13 15 13 12 7 7 7 7 8 10 11 12 12 13 14 15 16 16 17
19 16 13 11 11 10 9 10 10 9 8 7 9 10 13 10 8 8 8 7 6 6 8 10 12 16 26 20 12 10 7 7 7 9 10 11 13 13 14 15 16 17 18 18
16 15 12 9 10 9 9 10 10 9 8 10 9 11 10 9 10 7 8 9 8 7 7 9 10 14 11 7 9 10 9 9 9 11 12 13 14 15 15 17 18 21 20 20
15 15 13 12 10 8 9 13 12 12 11 11 12 12 13 13 11 10 10 11 10 10 9 7 9 9 4 4 8 9 10 11 12 13 14 15 17 17 18 20 21 22 23 24
13 12 11 11 10 10 12 11 11 13 14 14 15 15 14 12 10 9 11 12 11 9 9 8 10 8 6 6 8 10 12 13 15 17 18 17 20 20 21 22 24 25 26 26
10 11 9 11 12 13 11 12 12 12 13 13 14 14 13 11 10 11 12 13 12 10 9 9 10 10 9 9 11 11 12 15 17 19 19 20 21 23 24 26 27 27 28 28
6 8 10 10 11 13 14 12 12 11 15 15 15 17 15 15 14 15 14 14 14 12 10 10 11 11 11 13 14 14 15 17 19 19 22 22 25 27 29 29 29 29 29 29
9 9 10 11 12 15 15 13 12 11 16 15 16 15 13 13 13 13 13 13 13 11 11 11 11 11 12 13 13 14 15 17 20 21 24 26 29 30 30 31 31 31 31 30
14 12 14 12 12 16 14 12 14 16 15 15 14 11 7 7 7 11 6 9 12 10 9 9 9 10 11 11 12 14 17 21 23 25 27 28 29 30 31 32 32 32 32 31
14 15 14 16 15 15 14 14 15 13 11 10 8 8 7 5 4 7 13 12 10 10 8 9 9 8 10 13 15 18 21 24 26 27 28 30 31 32 32 32 32 31 31 30
14 12 13 13 14 16 15 14 14 13 13 10 9 8 9 9 9 8 11 9 8 9 9 9 9 11 13 16 18 21 24 26 27 29 30 31 31 31 31 31 31 30 30 29
14 12 13 15 16 14 15 13 11 10 12 11 9 8 8 7 8 8 8 7 8 9 10 10 11 13 16 19 22 24 27 28 29 29 29 29 29 29 29 29 29 29 29 29
14 12 11 12 11 9 9 9 11 11 11 11 10 8 9 9 8 10 10 10 10 10 11 12 14 16 19 22 25 27 28 27 27 27 27 28 29 29 29 29 29 29 28 28
Wind_Direction
212 209 210 217 210 215 229 229 276 284 283 295 287 324 333 307 262 281 269 270 316 340 353 333 332 266 322 245 208 209 226 227 233 236 239 244 248 255 259 261 262 257 256 257
212 211 208 210 216 222 223 251 280 281 306 290 267 320 324 331 296 279 274 277 285 334 343 323 312 304 240 296 226 225 238 238 234 241 243 249 257 262 269 268 265 263 262 261
204 211 211 213 221 225 225 240 267 272 288 267 232 292 302 299 310 281 273 276 284 312 312 304 298 280 245 257 264 240 241 250 252 257 257 258 265 278 282 264 269 272 269 266
213 220 211 212 218 208 241 228 262 272 255 238 272 275 276 274 291 280 271 275 268 296 307 313 317 285 240 247 270 284 254 255 270 277 274 269 297 307 323 282 291 288 281 274
211 209 200 213 209 213 227 267 274 262 227 254 291 295 288 293 281 266 254 260 258 273 286 317 320 307 258 233 242 292 314 282 288 284 300 300 308 319 318 311 305 301 291 281
208 207 206 202 219 220 238 239 276 267 251 287 290 252 294 274 268 249 245 239 242 252 287 330 347 357 16 264 254 262 314 329 314 305 309 316 322 323 324 326 323 319 312 294
210 211 207 212 230 220 222 227 255 258 283 255 259 269 281 296 276 244 235 230 220 234 263 346 344 5 21 6 308 261 301 327 341 338 333 333 332 333 329 326 328 332 333 319
195 208 197 205 212 216 220 219 222 239 241 258 257 261 300 299 280 258 257 236 223 227 252 322 320 23 35 43 52 59 2 4 357 353 348 342 339 335 333 334 334 340 346 344
191 206 205 206 212 214 225 229 237 225 257 266 259 278 304 292 288 268 252 216 212 216 221 238 261 302 24 40 41 38 26 2 354 351 348 347 344 340 338 339 338 338 345 352
193 198 200 216 220 235 236 220 247 255 235 256 271 274 287 300 278 253 227 206 205 213 229 245 265 279 306 308 353 351 343 344 347 350 348 343 344 343 338 337 337 336 337 342
194 197 214 221 229 233 224 228 248 220 243 243 276 274 291 297 264 230 212 201 208 226 237 251 272 283 285 290 295 300 311 325 331 337 341 337 334 337 339 339 339 338 339 339
194 190 201 219 228 224 223 219 217 230 250 268 277 288 287 307 283 224 204 211 218 233 249 263 277 294 291 283 282 284 293 309 317 324 330 332 332 335 339 342 344 343 341 341
191 198 199 238 241 231 228 231 230 229 250 254 269 291 303 344 63 176 183 219 224 227 248 262 277 303 298 286 275 273 283 300 312 323 329 334 337 338 341 343 343 344 344 343
186 196 197 208 225 225 226 232 231 243 258 257 266 289 294 274 237 222 227 228 221 233 251 273 276 288 312 287 274 263 276 292 308 324 333 335 336 337 338 340 341 341 342 341
193 205 215 228 239 236 234 232 237 244 253 256 273 262 279 277 254 257 237 220 224 241 259 275 282 293 297 266 269 262 267 284 300 316 321 330 331 332 331 332 334 334 332 333
206 208 212 237 243 233 241 245 243 252 257 273 275 282 283 279 271 251 227 223 232 243 261 273 297 325 338 201 254 258 259 275 293 305 309 315 323 321 323 326 323 324 323 322
203 208 212 221 231 240 264 250 248 260 260 268 271 278 291 283 263 239 228 224 228 240 256 273 299 318 295 259 261 257 266 275 289 300 303 307 315 313 314 317 317 318 316 315
199 206 211 217 233 249 257 249 252 256 263 268 278 287 292 283 261 252 235 225 229 239 246 275 301 314 294 299 283 270 272 281 289 296 298 300 308 308 309 310 312 313 312 311
204 203 213 222 238 262 265 249 253 255 269 274 278 282 280 268 258 254 250 233 231 240 245 284 299 299 285 290 291 278 280 286 291 291 300 297 302 306 306 307 307 308 309 308
217 218 229 236 240 247 261 256 261 266 273 274 283 284 269 260 257 254 247 231 230 234 254 281 294 298 286 292 290 285 287 290 294 293 297 297 301 303 304 304 303 303 303 303
246 251 239 247 255 268 263 256 260 263 272 272 283 285 267 261 259 249 224 226 230 237 257 276 284 290 289 293 290 290 294 297 299 297 299 300 301 302 302 302 301 301 301 300
243 243 249 256 261 268 255 257 257 270 273 280 279 269 271 243 230 244 240 229 241 244 265 275 280 289 295 296 297 300 302 302 301 300 300 302 302 303 303 303 302 301 300 298
253 246 253 245 257 272 262 264 268 272 266 264 259 258 243 238 259 216 231 248 274 274 277 280 283 292 301 304 303 304 305 305 304 303 303 303 303 303 303 302 302 301 300 298
250 253 256 263 263 262 267 267 265 264 248 254 259 251 224 229 240 252 265 284 262 265 278 282 291 302 305 307 309 309 308 307 306 305 304 304 304 304 303 303 303 302 301 299
249 248 254 262 267 266 262 254 256 260 243 246 246 239 236 247 260 256 264 265 261 275 284 291 299 303 306 309 311 311 310 309 308 307 307 307 307 307 306 305 304 303 302 300
242 243 249 254 257 247 255 256 245 252 252 230 226 238 256 257 258 259 267 268 271 279 287 294 299 303 307 310 312 313 313 313 312 311 311 310 310 309 308 307 306 304 302 301